Regional Weather Roundup
Issued by NWS State College, PA

Home | Current Version | Previous Version | Text Only | Print | Product List | Glossary Off
Versions: 1 2 3 4 5 6 7 8 9 10 11 12 13 14 15 16 17 18 19 20 21 22 23 24 25 26 27 28 29 30 31 32 33 34 35 36 37 38 39 40 41 42 43 44 45 46 47 48 49 50

000
ASUS41 KCTP 041510
RWRCTP

REGIONAL WEATHER ROUNDUP
NATIONAL WEATHER SERVICE STATE COLLEGE PA
1000 AM EST WED MAR 04 2015

Note: "fair" indicates few or no clouds below 12,000 feet with no
significant weather and/or obstructions to visibility.

* = STATION THAT DOES NOT REPORT PRECIPITATION /E.G. RAIN...SNOW...ETC/
    THUNDER OR FOG.

PAZ002>004-007>009-013>016-020>023-029>032-041600-
WESTERN PENNSYLVANIA

CITY           SKY/WX    TMP DP  RH WIND       PRES   REMARKS
ERIE           CLOUDY    32  23  69 W8        29.94R
MEADVILLE        N/A     31  25  78 W5        29.90R
FRANKLIN*      CLOUDY    32  27  80 W8        29.91S
NEW CASTLE     CLOUDY    34  34 100 CALM      29.93F FOG
BEAVER COUNTY  FOG       34  32  93 W6        29.92F VSB 1
BUTLER*        CLOUDY    34  32  93 W8        29.93S
PITTSBURGH INT CLOUDY    34  32  92 CALM      29.90F FOG
PITTSBURGH     CLOUDY    34  30  85 W5        29.89F FOG
INDIANA*       CLOUDY    34  34 100 W5        29.93F FOG
LATROBE        LGT RAIN  36  36 100 W6        29.92F
WASHINGTON CO* CLOUDY    36  36 100 CALM      29.91F
$$

PAZ004>006-010>012-017>019-024>028-033>037-041-042-045-046-049>053-041600-
CENTRAL PENNSYLVANIA

CITY           SKY/WX    TMP DP  RH WIND       PRES   REMARKS
BRADFORD       CLOUDY    31  26  82 W13       29.84R
DUBOIS         FOG       32  31  96 W12       29.86R VSB 1/4
CLEARFIELD     CLOUDY    34  31  88 W8G17     29.86S
JOHNSTOWN      CLOUDY    36  35  96 SW9       29.83F FOG
ALTOONA        LGT RAIN  38  36  92 S5        29.86S
STATE COLLEGE  CLOUDY    36  32  87 W10       29.87R
WILLIAMSPORT   CLOUDY    33  30  88 CALM      29.89R FOG
SELINSGROVE    CLOUDY    35  33  92 CALM      29.90R FOG
FT INDIANTOWN  LGT RAIN  32  32 100 NE1       29.89R FOG
CAPITAL CITY   CLOUDY    36  34  92 CALM      29.89R FOG
HARRISBURG     CLOUDY    39  35  86 VRB5      29.88S FOG
YORK           CLOUDY    37  35  92 CALM      29.89F FOG
$$

PAZ038>040-043-044-047-048-054-055-060>062-067>071-041600-
EASTERN PENNSYLVANIA

CITY           SKY/WX    TMP DP  RH WIND       PRES   REMARKS
SCRANTON       CLOUDY    36  32  85 SW8       29.84S FOG
MOUNT POCONO   LGT RAIN  36  33  89 W15       29.79R
ALLENTOWN      CLOUDY    36  32  85 SW8       29.88R FOG
QUAKERTOWN*    CLOUDY    36  36 100 CALM      29.88S VSB 1
READING        LGT RAIN  36  34  92 CALM      29.88R VSB 1
LANCASTER      LGT RAIN  35  34  96 CALM      29.88F FOG
COATESVILLE    CLOUDY    37  37 100 W5        29.89F FOG
POTTSTOWN      LGT RAIN  37  37 100 CALM      29.89F FOG
BLUE BELL      CLOUDY    37  37 100 CALM      29.87F
DOYLESTOWN     LGT RAIN  35  35 100 SW3       29.87S FOG
WILLOW GROVE   NOT AVBL
NORTH PHILA    LGT RAIN  39  35  86 CALM      29.90F FOG
PHILADELPHIA   LGT RAIN  38  36  92 SW7       29.90F FOG
$$



USA.gov is the U.S. government's official web portal to all federal, state and local government web resources and services.